BER515 LEPA-EDDM

Flight info

Callsign BER515
Flight time 1h 48m
Altitude 36000
Route MEROS DCT LAPIT DCT CHELY/N0461F320 DCT LUMAS DCT UNANA/N0446F300 DCT STP DCT RAPED DCT PIGOS DCT EKSID DCT NOSTA DCT NOPMU DCT VAKON DCT TAGIP DCT GUNGO DCT TISAX DCT IVKAL T102 NINUR T101 BETOS BETOS1A
Aircraft A332/H-SDE3GHIJ2J3J5M1RVWXY/LB2D1

Departure

Time 2026-05-04 16:16
Airport Palma de Mallorca Airport (LEPA)

Arrival

Time 2026-05-04 18:05
Airport Munich Airport (EDDM)
Time Latitude Longitude Altitude Speed Heading
2026-05-04 15:49 39.55004 2.73731 33 ft 0 kts 238°
2026-05-04 16:07 39.55009 2.73741 34 ft 4 kts 239°
2026-05-04 16:07 39.55035 2.73838 32 ft 4 kts 281°
2026-05-04 16:08 39.55026 2.73862 32 ft 1 kts 328°
2026-05-04 16:08 39.55025 2.73862 34 ft 0 kts 328°
2026-05-04 16:10 39.55027 2.73861 34 ft 3 kts 328°
2026-05-04 16:11 39.55220 2.73813 34 ft 14 kts 346°
2026-05-04 16:11 39.55309 2.73749 34 ft 16 kts 328°
2026-05-04 16:12 39.55617 2.73513 34 ft 16 kts 341°
2026-05-04 16:12 39.55822 2.73852 32 ft 19 kts 58°
2026-05-04 16:13 39.55966 2.74158 34 ft 20 kts 59°
2026-05-04 16:13 39.56108 2.74437 34 ft 13 kts 39°
2026-05-04 16:14 39.56126 2.74449 34 ft 0 kts 20°
2026-05-04 16:14 39.56128 2.74450 34 ft 2 kts 18°
2026-05-04 16:15 39.56246 2.74309 34 ft 11 kts 253°
2026-05-04 16:16 39.55894 2.73556 34 ft 108 kts 238°
2026-05-04 16:16 39.54352 2.70071 1468 ft 164 kts 238°
2026-05-04 16:17 39.53091 2.67178 2268 ft 203 kts 240°
2026-05-04 16:18 39.50525 2.62514 4384 ft 212 kts 229°
2026-05-04 16:18 39.49396 2.61300 5175 ft 216 kts 214°
2026-05-04 16:19 39.44810 2.58701 7279 ft 256 kts 188°
2026-05-04 16:19 39.41411 2.60383 9131 ft 290 kts 136°
2026-05-04 16:20 39.40591 2.68721 10890 ft 356 kts 88°
2026-05-04 16:20 39.40956 2.75408 11966 ft 383 kts 89°
2026-05-04 16:21 39.41381 2.85922 13848 ft 395 kts 89°
2026-05-04 16:22 39.41636 2.93043 13958 ft 398 kts 89°
2026-05-04 16:22 39.42013 3.03945 15606 ft 411 kts 89°
2026-05-04 16:23 39.42391 3.15185 17446 ft 427 kts 89°
2026-05-04 16:24 39.44867 3.30405 19579 ft 449 kts 59°
2026-05-04 16:25 39.48110 3.37428 20558 ft 459 kts 58°
2026-05-04 16:26 39.54789 3.51884 22518 ft 477 kts 59°
2026-05-04 16:26 39.59941 3.63150 23783 ft 491 kts 59°
2026-05-04 16:27 39.63441 3.70830 24610 ft 497 kts 59°
2026-05-04 16:28 39.68750 3.82520 25799 ft 505 kts 60°
2026-05-04 16:28 39.74126 3.94401 26990 ft 513 kts 61°
2026-05-04 16:29 39.81412 4.10576 28443 ft 524 kts 61°
2026-05-04 16:30 39.86626 4.23163 29440 ft 528 kts 74°
2026-05-04 16:31 39.88643 4.32354 30136 ft 530 kts 79°
2026-05-04 16:31 39.92485 4.45883 30953 ft 544 kts 57°
2026-05-04 16:32 40.01094 4.55273 31914 ft 539 kts 19°
2026-05-04 16:33 40.08229 4.57306 32845 ft 515 kts 354°
2026-05-04 16:33 40.15100 4.55932 33746 ft 488 kts 333°
2026-05-04 16:34 40.21335 4.52811 34453 ft 479 kts 328°
2026-05-04 16:34 40.24393 4.51085 34795 ft 477 kts 328°
2026-05-04 16:35 40.33480 4.45886 35812 ft 473 kts 328°
2026-05-04 16:35 40.42592 4.40785 35926 ft 475 kts 328°
2026-05-04 16:36 40.52408 4.37695 35919 ft 503 kts 353°
2026-05-04 16:37 40.62924 4.39561 35920 ft 514 kts
2026-05-04 16:38 40.76999 4.43104 35923 ft 514 kts
2026-05-04 16:39 40.94579 4.47364 35931 ft 515 kts
2026-05-04 16:40 41.07507 4.50501 35923 ft 515 kts
2026-05-04 16:41 41.25159 4.54804 35922 ft 515 kts
2026-05-04 16:43 41.42766 4.59120 35915 ft 515 kts
2026-05-04 16:43 41.53341 4.61723 35921 ft 515 kts
2026-05-04 16:45 41.74212 4.68846 35919 ft 530 kts 29°
2026-05-04 16:46 41.82566 4.78573 35921 ft 535 kts 43°
2026-05-04 16:46 41.87828 4.85643 35927 ft 536 kts 44°
2026-05-04 16:47 41.98353 4.99777 35923 ft 533 kts 43°
2026-05-04 16:48 42.08891 5.13834 35955 ft 533 kts 43°
2026-05-04 16:49 42.19338 5.27839 35939 ft 530 kts 43°
2026-05-04 16:50 42.29791 5.41924 35958 ft 531 kts 43°
2026-05-04 16:51 42.37627 5.52531 35957 ft 531 kts 43°
2026-05-04 16:52 42.48060 5.66714 35988 ft 531 kts 43°
2026-05-04 16:53 42.55868 5.77375 35971 ft 531 kts 43°
2026-05-04 16:54 42.66232 5.91587 35978 ft 531 kts 43°
2026-05-04 16:55 42.81802 6.13076 36015 ft 531 kts 44°
2026-05-04 16:56 42.95493 6.29668 36020 ft 525 kts 37°
2026-05-04 16:57 43.03881 6.39278 36021 ft 525 kts 37°
2026-05-04 16:58 43.15047 6.52163 36035 ft 524 kts 37°
2026-05-04 17:00 43.29627 6.74525 36029 ft 528 kts 53°
2026-05-04 17:01 43.40307 6.94979 36043 ft 528 kts 53°
2026-05-04 17:02 43.48890 7.11398 36045 ft 527 kts 53°
2026-05-04 17:03 43.55276 7.23670 36036 ft 527 kts 53°
2026-05-04 17:03 43.61667 7.36007 36043 ft 526 kts 53°
2026-05-04 17:04 43.70144 7.52452 36029 ft 525 kts 53°
2026-05-04 17:05 43.78586 7.68921 36043 ft 525 kts 53°
2026-05-04 17:06 43.83261 7.76612 36055 ft 519 kts 38°
2026-05-04 17:06 43.86002 7.79849 36063 ft 517 kts 36°
2026-05-04 17:07 43.93528 7.88068 36084 ft 517 kts 35°
2026-05-04 17:07 43.99757 7.95827 36096 ft 516 kts 40°
2026-05-04 17:08 44.07568 8.06168 36103 ft 517 kts 41°
2026-05-04 17:09 44.12723 8.13075 36100 ft 517 kts 41°
2026-05-04 17:09 44.17888 8.20006 36093 ft 514 kts 41°
2026-05-04 17:10 44.30740 8.37277 36079 ft 513 kts 41°
2026-05-04 17:11 44.35821 8.44138 36092 ft 509 kts 41°
2026-05-04 17:12 44.43437 8.54455 36082 ft 507 kts 41°
2026-05-04 17:13 44.56083 8.71680 36086 ft 508 kts 42°
2026-05-04 17:14 44.66183 8.85511 36096 ft 506 kts 42°
2026-05-04 17:15 44.73680 8.95827 36073 ft 504 kts 42°
2026-05-04 17:16 44.83685 9.09653 36068 ft 504 kts 42°
2026-05-04 17:17 44.93665 9.23514 36063 ft 502 kts 42°
2026-05-04 17:18 45.03596 9.37376 36067 ft 501 kts 43°
2026-05-04 17:19 45.13444 9.51196 36054 ft 500 kts 43°
2026-05-04 17:20 45.23304 9.65104 36071 ft 499 kts 43°
2026-05-04 17:20 45.30662 9.75531 36081 ft 497 kts 43°
2026-05-04 17:21 45.40400 9.89390 36050 ft 496 kts 43°
2026-05-04 17:22 45.45271 9.96350 36052 ft 495 kts 43°
2026-05-04 17:23 45.54859 10.10486 36052 ft 495 kts 45°
2026-05-04 17:24 45.61943 10.21197 36047 ft 494 kts 45°
2026-05-04 17:25 45.71359 10.35433 36092 ft 492 kts 45°
2026-05-04 17:26 45.80709 10.49643 36122 ft 491 kts 45°
2026-05-04 17:27 45.91660 10.66245 36156 ft 490 kts 41°
2026-05-04 17:27 45.97197 10.71868 36155 ft 486 kts 28°
2026-05-04 17:28 46.03111 10.76588 36162 ft 485 kts 25°
2026-05-04 17:29 46.20897 10.90194 36183 ft 482 kts 26°
2026-05-04 17:31 46.35662 11.01666 36182 ft 482 kts 26°
2026-05-04 17:31 46.45060 11.06238 36130 ft 473 kts
2026-05-04 17:32 46.51630 11.06615 36132 ft 472 kts 358°
2026-05-04 17:33 46.64708 11.06356 36113 ft 469 kts 352°
2026-05-04 17:34 46.77673 11.04105 35720 ft 465 kts 350°
2026-05-04 17:35 46.87332 11.02258 33552 ft 471 kts 350°
2026-05-04 17:35 46.93906 11.01158 31755 ft 480 kts 357°
2026-05-04 17:35 46.97253 11.01352 30848 ft 484 kts
2026-05-04 17:36 47.00628 11.01726 30102 ft 485 kts
2026-05-04 17:36 47.03979 11.02199 29445 ft 481 kts
2026-05-04 17:36 47.07240 11.02707 28844 ft 475 kts
2026-05-04 17:36 47.10516 11.03235 28199 ft 470 kts
2026-05-04 17:37 47.13755 11.03755 27609 ft 466 kts
2026-05-04 17:37 47.16971 11.04262 26985 ft 462 kts
2026-05-04 17:37 47.20150 11.04757 26361 ft 457 kts
2026-05-04 17:37 47.23296 11.05249 25752 ft 453 kts
2026-05-04 17:38 47.26423 11.05734 25136 ft 449 kts
2026-05-04 17:38 47.29515 11.06206 24532 ft 444 kts
2026-05-04 17:38 47.32578 11.06670 23928 ft 442 kts
2026-05-04 17:38 47.35632 11.07133 23252 ft 439 kts
2026-05-04 17:39 47.41656 11.08052 22001 ft 431 kts
2026-05-04 17:39 47.44626 11.08507 21398 ft 427 kts
2026-05-04 17:39 47.47531 11.08955 20813 ft 422 kts
2026-05-04 17:40 47.50442 11.09404 20224 ft 418 kts
2026-05-04 17:40 47.53322 11.09851 19636 ft 414 kts
2026-05-04 17:40 47.56138 11.10707 19063 ft 413 kts 17°
2026-05-04 17:40 47.58790 11.12334 18477 ft 411 kts 24°
2026-05-04 17:41 47.61328 11.14243 17844 ft 408 kts 28°
2026-05-04 17:41 47.63788 11.16305 17245 ft 403 kts 30°
2026-05-04 17:41 47.66183 11.18415 16675 ft 399 kts 30°
2026-05-04 17:41 47.68548 11.20533 16096 ft 395 kts 30°
2026-05-04 17:42 47.70900 11.22637 15537 ft 393 kts 30°
2026-05-04 17:42 47.73278 11.24592 14941 ft 390 kts 23°
2026-05-04 17:42 47.75754 11.26209 14368 ft 387 kts 22°
2026-05-04 17:42 47.78243 11.27710 13791 ft 384 kts 20°
2026-05-04 17:43 47.80727 11.29119 13182 ft 381 kts 19°
2026-05-04 17:43 47.83202 11.30480 12595 ft 376 kts 19°
2026-05-04 17:43 47.85687 11.31651 12052 ft 372 kts
2026-05-04 17:43 47.88230 11.31899 11562 ft 359 kts 356°
2026-05-04 17:44 47.90682 11.31705 11030 ft 356 kts 354°
2026-05-04 17:44 47.93139 11.31470 10513 ft 351 kts 354°
2026-05-04 17:44 47.95564 11.31237 10091 ft 345 kts 354°
2026-05-04 17:44 47.97910 11.31014 9950 ft 330 kts 354°
2026-05-04 17:45 48.00144 11.30808 9934 ft 313 kts 354°
2026-05-04 17:45 48.02289 11.30615 9935 ft 306 kts 354°
2026-05-04 17:45 48.04423 11.30423 9938 ft 306 kts 354°
2026-05-04 17:45 48.06549 11.30233 9970 ft 306 kts 354°
2026-05-04 17:46 48.08669 11.29939 9815 ft 305 kts 348°
2026-05-04 17:46 48.10746 11.29324 9479 ft 304 kts 344°
2026-05-04 17:46 48.12810 11.28632 9019 ft 303 kts 344°
2026-05-04 17:46 48.14864 11.27915 8562 ft 303 kts 344°
2026-05-04 17:47 48.16888 11.27187 8111 ft 302 kts 344°
2026-05-04 17:47 48.18930 11.26463 7667 ft 301 kts 349°
2026-05-04 17:47 48.21010 11.26565 7233 ft 301 kts 14°
2026-05-04 17:47 48.22869 11.27954 6790 ft 299 kts 40°
2026-05-04 17:48 48.24152 11.30352 6354 ft 295 kts 65°
2026-05-04 17:48 48.24628 11.33298 5910 ft 290 kts 90°
2026-05-04 17:48 48.24389 11.36284 5467 ft 287 kts 102°
2026-05-04 17:48 48.23949 11.39190 5099 ft 282 kts 103°
2026-05-04 17:49 48.23491 11.41988 4998 ft 269 kts 104°
2026-05-04 17:49 48.23044 11.44692 4993 ft 267 kts 103°
2026-05-04 17:49 48.22858 11.47457 4995 ft 267 kts 88°
2026-05-04 17:49 48.23006 11.50235 4994 ft 268 kts 84°
2026-05-04 17:50 48.23209 11.53013 4996 ft 268 kts 84°
2026-05-04 17:50 48.23414 11.55757 4993 ft 268 kts 84°
2026-05-04 17:50 48.23621 11.58537 4995 ft 268 kts 84°
2026-05-04 17:50 48.23830 11.61312 4996 ft 268 kts 84°
2026-05-04 17:51 48.24038 11.64089 4989 ft 268 kts 84°
2026-05-04 17:51 48.24245 11.66879 4995 ft 269 kts 84°
2026-05-04 17:51 48.24452 11.69671 4993 ft 269 kts 84°
2026-05-04 17:51 48.24659 11.72471 4994 ft 269 kts 84°
2026-05-04 17:52 48.24866 11.75272 4993 ft 269 kts 84°
2026-05-04 17:52 48.25072 11.78061 4995 ft 269 kts 84°
2026-05-04 17:52 48.25280 11.80856 4992 ft 269 kts 84°
2026-05-04 17:52 48.25486 11.83654 4994 ft 270 kts 84°
2026-05-04 17:53 48.25687 11.86421 4993 ft 270 kts 84°
2026-05-04 17:53 48.25894 11.89248 4993 ft 269 kts 84°
2026-05-04 17:53 48.26097 11.92004 4993 ft 269 kts 84°
2026-05-04 17:53 48.26302 11.94799 4993 ft 269 kts 84°
2026-05-04 17:54 48.26506 11.97592 4992 ft 269 kts 84°
2026-05-04 17:54 48.26710 12.00385 4991 ft 269 kts 84°
2026-05-04 17:54 48.26914 12.03188 4993 ft 270 kts 84°
2026-05-04 17:54 48.27118 12.05981 4992 ft 269 kts 84°
2026-05-04 17:55 48.27323 12.08779 4985 ft 269 kts 84°
2026-05-04 17:55 48.27521 12.11582 4985 ft 269 kts 84°
2026-05-04 17:55 48.27717 12.14380 4982 ft 269 kts 84°
2026-05-04 17:55 48.27914 12.17182 4983 ft 269 kts 84°
2026-05-04 17:56 48.28111 12.19981 4981 ft 269 kts 84°
2026-05-04 17:56 48.28305 12.22741 4979 ft 269 kts 84°
2026-05-04 17:56 48.28501 12.25548 4982 ft 269 kts 84°
2026-05-04 17:56 48.28960 12.28257 4974 ft 269 kts 63°
2026-05-04 17:57 48.30172 12.30371 4971 ft 270 kts 36°
2026-05-04 17:57 48.31904 12.31415 4974 ft 272 kts
2026-05-04 17:57 48.33778 12.31149 4968 ft 274 kts 341°
2026-05-04 17:57 48.35373 12.29624 4971 ft 275 kts 314°
2026-05-04 17:58 48.36425 12.27267 4985 ft 276 kts 297°
2026-05-04 17:58 48.37235 12.24641 4980 ft 275 kts 290°
2026-05-04 17:58 48.37644 12.21915 4976 ft 259 kts 274°
2026-05-04 17:58 48.37572 12.19287 4975 ft 244 kts 262°
2026-05-04 17:59 48.37356 12.16824 4975 ft 230 kts 262°
2026-05-04 17:59 48.37154 12.14496 4977 ft 218 kts 262°
2026-05-04 17:59 48.36775 12.10338 4987 ft 186 kts 261°
2026-05-04 18:00 48.36614 12.08447 4984 ft 180 kts 262°
2026-05-04 18:00 48.36473 12.06598 4908 ft 179 kts 263°
2026-05-04 18:00 48.36349 12.04747 4676 ft 178 kts 263°
2026-05-04 18:00 48.36210 12.02890 4427 ft 178 kts 263°
2026-05-04 18:01 48.36065 12.01046 4163 ft 177 kts 263°
2026-05-04 18:01 48.35923 11.99202 3923 ft 176 kts 263°
2026-05-04 18:01 48.35784 11.97403 3689 ft 168 kts 264°
2026-05-04 18:02 48.35531 11.94139 3291 ft 147 kts 264°
2026-05-04 18:02 48.35415 11.92636 3111 ft 143 kts 264°
2026-05-04 18:02 48.35303 11.91166 2919 ft 143 kts 264°
2026-05-04 18:02 48.35189 11.89683 2732 ft 142 kts 264°
2026-05-04 18:03 48.35076 11.88201 2534 ft 141 kts 264°
2026-05-04 18:03 48.34962 11.86734 2349 ft 141 kts 265°
2026-05-04 18:03 48.34851 11.85279 2151 ft 139 kts 264°
2026-05-04 18:03 48.34740 11.83846 1958 ft 137 kts 265°
2026-05-04 18:04 48.34631 11.82451 1786 ft 136 kts 265°
2026-05-04 18:04 48.34519 11.81037 1631 ft 135 kts 265°
2026-05-04 18:04 48.34337 11.78624 1479 ft 57 kts 264°
2026-05-04 18:05 48.34310 11.78118 1479 ft 42 kts 274°
2026-05-04 18:05 48.34352 11.77867 1474 ft 11 kts 292°
2026-05-04 18:05 48.34378 11.77774 1483 ft 9 kts 293°
2026-05-04 18:05 48.34404 11.77684 1481 ft 8 kts 294°
2026-05-04 18:06 48.34444 11.77549 1477 ft 14 kts 294°
2026-05-04 18:06 48.34496 11.77456 1486 ft 9 kts 335°
2026-05-04 18:06 48.34564 11.77433 1482 ft 11 kts 350°
2026-05-04 18:07 48.34618 11.77365 1478 ft 11 kts 284°
2026-05-04 18:07 48.34610 11.77218 1478 ft 16 kts 262°
2026-05-04 18:07 48.34596 11.77040 1478 ft 18 kts 263°
2026-05-04 18:07 48.34582 11.76850 1478 ft 18 kts 263°
2026-05-04 18:08 48.34586 11.76709 1478 ft 8 kts 302°
2026-05-04 18:08 48.34600 11.76691 1477 ft 0 kts 323°
2026-05-04 18:08 48.34632 11.76676 1477 ft 8 kts 350°
2026-05-04 18:08 48.34692 11.76667 1489 ft 10 kts 357°
2026-05-04 18:09 48.34753 11.76669 1478 ft 2 kts 329°
2026-05-04 18:09 48.34792 11.76678 1483 ft 1 kts 62°
2026-05-04 18:10 48.34785 11.76698 1480 ft 4 kts 123°
2026-05-04 18:10 48.34757 11.76791 1482 ft 9 kts 95°
2026-05-04 18:10 48.34762 11.76881 1489 ft 9 kts 83°
2026-05-04 18:10 48.34768 11.76950 1476 ft 11 kts 83°
2026-05-04 18:11 48.34778 11.77072 1483 ft 13 kts 83°
2026-05-04 18:11 48.34793 11.77254 1480 ft 13 kts 83°
2026-05-04 18:11 48.34784 11.77296 1480 ft 7 kts 123°
2026-05-04 18:11 48.34762 11.77310 1483 ft 6 kts 165°
2026-05-04 18:12 48.34712 11.77322 1484 ft 1 kts 174°
2026-05-04 18:12 48.34710 11.77322 1485 ft 0 kts 174°